Time,TemperatureF,DewpointF,PressureIn,WindDirection,WindDirectionDegrees,WindSpeedMPH,WindSpeedGustMPH,Humidity,HourlyPrecipIn,Conditions,Clouds,dailyrainin,SoftwareType,DateUTC
2013-06-09 00:10:00,62.2,57.3,29.90,East,90,5.3,-999.0,84,-99.99,,,0.00,Acu-Link.com,2013-06-09 05:10:00,
2013-06-09 00:25:00,62.2,57.6,29.91,SE,135,3.7,-999.0,85,-99.99,,,0.00,Acu-Link.com,2013-06-09 05:25:00,
2013-06-09 00:41:00,62.6,58.3,29.91,SSW,202,5.8,-999.0,86,-99.99,,,0.00,Acu-Link.com,2013-06-09 05:41:00,
2013-06-09 01:12:00,63.5,58.9,29.90,SSE,157,14.5,-999.0,85,-99.99,,,0.00,Acu-Link.com,2013-06-09 06:12:00,
2013-06-09 01:27:00,62.6,59.0,29.91,ESE,112,5.8,-999.0,88,-99.99,,,0.00,Acu-Link.com,2013-06-09 06:27:00,
2013-06-09 01:42:00,61.5,58.5,29.90,SSE,157,8.9,-999.0,90,-99.99,,,0.00,Acu-Link.com,2013-06-09 06:42:00,
2013-06-09 01:57:00,60.6,58.9,29.90,SE,135,7.8,-999.0,94,-99.99,,,0.01,Acu-Link.com,2013-06-09 06:57:00,
2013-06-09 02:12:00,59.9,59.0,29.90,SSE,157,7.3,-999.0,97,-99.99,,,0.02,Acu-Link.com,2013-06-09 07:12:00,
2013-06-09 02:27:00,59.4,58.8,29.89,ESE,112,8.9,-999.0,98,-99.99,,,0.03,Acu-Link.com,2013-06-09 07:27:00,
2013-06-09 02:43:00,59.2,58.6,29.88,ESE,112,6.8,-999.0,98,-99.99,,,0.06,Acu-Link.com,2013-06-09 07:43:00,
2013-06-09 02:58:00,58.8,58.2,29.88,NE,45,4.7,-999.0,98,-99.99,,,0.08,Acu-Link.com,2013-06-09 07:58:00,
2013-06-09 03:13:00,58.6,58.0,29.87,East,90,4.7,-999.0,98,-99.99,,,0.11,Acu-Link.com,2013-06-09 08:13:00,
2013-06-09 03:28:00,58.6,58.0,29.85,East,90,7.8,-999.0,98,-99.99,,,0.13,Acu-Link.com,2013-06-09 08:28:00,
2013-06-09 03:43:00,58.5,57.9,29.85,ESE,112,7.3,-999.0,98,-99.99,,,0.16,Acu-Link.com,2013-06-09 08:43:00,
2013-06-09 03:58:00,58.3,57.7,29.84,SE,135,5.8,-999.0,98,-99.99,,,0.16,Acu-Link.com,2013-06-09 08:58:00,
2013-06-09 04:13:00,57.9,57.3,29.85,ESE,112,7.3,-999.0,98,-99.99,,,0.17,Acu-Link.com,2013-06-09 09:13:00,
2013-06-09 04:28:00,57.6,57.0,29.85,ESE,112,10.4,-999.0,98,-99.99,,,0.20,Acu-Link.com,2013-06-09 09:28:00,
2013-06-09 04:44:00,57.4,56.8,29.84,East,90,7.8,-999.0,98,-99.99,,,0.23,Acu-Link.com,2013-06-09 09:44:00,
2013-06-09 04:59:00,57.2,56.6,29.84,ESE,112,10.9,-999.0,98,-99.99,,,0.27,Acu-Link.com,2013-06-09 09:59:00,
2013-06-09 05:14:00,57.2,56.6,29.84,NE,45,8.3,-999.0,98,-99.99,,,0.30,Acu-Link.com,2013-06-09 10:14:00,
2013-06-09 05:29:00,56.8,56.2,29.83,ESE,112,6.3,-999.0,98,-99.99,,,0.33,Acu-Link.com,2013-06-09 10:29:00,
2013-06-09 05:45:00,56.8,56.2,29.82,North,0,6.8,-999.0,98,-99.99,,,0.36,Acu-Link.com,2013-06-09 10:45:00,
2013-06-09 06:00:00,56.8,56.2,29.82,ESE,112,9.9,-999.0,98,-99.99,,,0.40,Acu-Link.com,2013-06-09 11:00:00,
2013-06-09 06:15:00,57.0,56.4,29.82,ESE,112,10.4,-999.0,98,-99.99,,,0.43,Acu-Link.com,2013-06-09 11:15:00,
2013-06-09 06:30:00,57.2,56.6,29.82,ESE,112,8.3,-999.0,98,-99.99,,,0.46,Acu-Link.com,2013-06-09 11:30:00,
2013-06-09 06:45:00,57.0,56.4,29.81,ESE,112,11.4,-999.0,98,-99.99,,,0.51,Acu-Link.com,2013-06-09 11:45:00,
2013-06-09 07:01:00,56.7,56.1,29.81,ESE,112,19.7,-999.0,98,-99.99,,,0.55,Acu-Link.com,2013-06-09 12:01:00,
2013-06-09 07:16:00,56.8,56.2,29.81,ESE,112,5.8,-999.0,98,-99.99,,,0.62,Acu-Link.com,2013-06-09 12:16:00,
2013-06-09 07:46:00,56.8,56.2,29.81,ESE,112,14.0,-999.0,98,-99.99,,,0.64,Acu-Link.com,2013-06-09 12:46:00,
2013-06-09 08:17:00,57.2,56.6,29.81,SSW,202,9.9,-999.0,98,-99.99,,,0.65,Acu-Link.com,2013-06-09 13:17:00,
2013-06-09 08:32:00,57.0,56.4,29.80,ESE,112,16.1,-999.0,98,-99.99,,,0.67,Acu-Link.com,2013-06-09 13:32:00,
2013-06-09 08:47:00,57.2,56.6,29.80,East,90,9.9,-999.0,98,-99.99,,,0.67,Acu-Link.com,2013-06-09 13:47:00,
2013-06-09 09:02:00,57.2,56.6,29.80,East,90,8.3,-999.0,98,-99.99,,,0.68,Acu-Link.com,2013-06-09 14:02:00,
2013-06-09 09:17:00,57.4,56.8,29.80,SE,135,10.4,-999.0,98,-99.99,,,0.68,Acu-Link.com,2013-06-09 14:17:00,
2013-06-09 09:33:00,57.7,57.1,29.80,SE,135,15.0,-999.0,98,-99.99,,,0.68,Acu-Link.com,2013-06-09 14:33:00,
2013-06-09 09:48:00,58.3,57.7,29.80,ESE,112,8.9,-999.0,98,-99.99,,,0.68,Acu-Link.com,2013-06-09 14:48:00,
2013-06-09 10:03:00,58.1,57.5,29.81,ESE,112,10.9,-999.0,98,-99.99,,,0.68,Acu-Link.com,2013-06-09 15:03:00,
2013-06-09 10:18:00,58.1,57.5,29.80,NE,45,7.3,-999.0,98,-99.99,,,0.68,Acu-Link.com,2013-06-09 15:18:00,
2013-06-09 10:34:00,59.2,58.1,29.80,NE,45,7.3,-999.0,96,-99.99,,,0.68,Acu-Link.com,2013-06-09 15:34:00,
2013-06-09 10:49:00,59.2,57.8,29.80,ESE,112,9.4,-999.0,95,-99.99,,,0.68,Acu-Link.com,2013-06-09 15:49:00,
2013-06-09 11:04:00,59.5,58.1,29.81,SE,135,3.7,-999.0,95,-99.99,,,0.68,Acu-Link.com,2013-06-09 16:04:00,
2013-06-09 11:20:00,59.4,58.0,29.81,ESE,112,5.3,-999.0,95,-99.99,,,0.68,Acu-Link.com,2013-06-09 16:20:00,
2013-06-09 11:35:00,59.2,57.8,29.81,NE,45,10.4,-999.0,95,-99.99,,,0.68,Acu-Link.com,2013-06-09 16:35:00,
2013-06-09 11:50:00,59.4,57.7,29.81,SSE,157,4.2,-999.0,94,-99.99,,,0.69,Acu-Link.com,2013-06-09 16:50:00,
2013-06-09 12:05:00,59.4,57.7,29.81,ESE,112,5.3,-999.0,94,-99.99,,,0.69,Acu-Link.com,2013-06-09 17:05:00,
2013-06-09 12:20:00,59.5,58.1,29.80,East,90,4.7,-999.0,95,-99.99,,,0.69,Acu-Link.com,2013-06-09 17:20:00,
2013-06-09 12:36:00,59.4,58.0,29.81,North,0,7.8,-999.0,95,-99.99,,,0.69,Acu-Link.com,2013-06-09 17:36:00,
2013-06-09 12:51:00,59.2,58.1,29.81,East,90,4.7,-999.0,96,-99.99,,,0.69,Acu-Link.com,2013-06-09 17:51:00,
2013-06-09 13:08:00,59.0,58.4,29.81,NE,45,5.3,-999.0,98,-99.99,,,0.69,Acu-Link.com,2013-06-09 18:08:00,
2013-06-09 13:23:00,59.4,58.8,29.80,ENE,67,6.3,-999.0,98,-99.99,,,0.70,Acu-Link.com,2013-06-09 18:23:00,
2013-06-09 13:39:00,59.5,58.9,29.80,East,90,5.8,-999.0,98,-99.99,,,0.70,Acu-Link.com,2013-06-09 18:39:00,
2013-06-09 13:55:00,59.5,58.9,29.80,ESE,112,7.8,-999.0,98,-99.99,,,0.70,Acu-Link.com,2013-06-09 18:55:00,
2013-06-09 14:10:00,59.5,58.9,29.81,ESE,112,5.8,-999.0,98,-99.99,,,0.71,Acu-Link.com,2013-06-09 19:10:00,
2013-06-09 14:25:00,59.7,59.1,29.80,East,90,7.8,-999.0,98,-99.99,,,0.71,Acu-Link.com,2013-06-09 19:25:00,
2013-06-09 14:40:00,60.4,59.8,29.80,East,90,7.3,-999.0,98,-99.99,,,0.71,Acu-Link.com,2013-06-09 19:40:00,
2013-06-09 14:56:00,61.5,60.1,29.79,ESE,112,9.9,-999.0,95,-99.99,,,0.72,Acu-Link.com,2013-06-09 19:56:00,
2013-06-09 15:11:00,61.0,60.1,29.79,ESE,112,10.4,-999.0,97,-99.99,,,0.72,Acu-Link.com,2013-06-09 20:11:00,
2013-06-09 15:26:00,61.5,60.3,29.79,ESE,112,8.3,-999.0,96,-99.99,,,0.72,Acu-Link.com,2013-06-09 20:26:00,
2013-06-09 15:56:00,62.2,60.7,29.79,ESE,112,10.4,-999.0,95,-99.99,,,0.72,Acu-Link.com,2013-06-09 20:56:00,
2013-06-09 16:11:00,62.6,61.1,29.80,ESE,112,4.7,-999.0,95,-99.99,,,0.72,Acu-Link.com,2013-06-09 21:11:00,
2013-06-09 16:27:00,62.8,61.3,29.80,ESE,112,9.4,-999.0,95,-99.99,,,0.72,Acu-Link.com,2013-06-09 21:27:00,
2013-06-09 16:42:00,63.1,61.9,29.80,ESE,112,5.3,-999.0,96,-99.99,,,0.72,Acu-Link.com,2013-06-09 21:42:00,
2013-06-09 16:57:00,63.1,61.6,29.80,ESE,112,7.8,-999.0,95,-99.99,,,0.72,Acu-Link.com,2013-06-09 21:57:00,
2013-06-09 17:12:00,65.1,62.7,29.79,East,90,6.3,-999.0,92,-99.99,,,0.72,Acu-Link.com,2013-06-09 22:12:00,
2013-06-09 17:28:00,64.8,62.4,29.79,East,90,6.8,-999.0,92,-99.99,,,0.72,Acu-Link.com,2013-06-09 22:28:00,
2013-06-09 17:43:00,65.3,62.9,29.79,NE,45,5.8,-999.0,92,-99.99,,,0.72,Acu-Link.com,2013-06-09 22:43:00,
2013-06-09 17:58:00,65.5,62.8,29.79,ENE,67,8.3,-999.0,91,-99.99,,,0.72,Acu-Link.com,2013-06-09 22:58:00,
2013-06-09 18:13:00,66.2,63.5,29.79,ENE,67,5.3,-999.0,91,-99.99,,,0.72,Acu-Link.com,2013-06-09 23:13:00,
2013-06-09 18:28:00,66.0,63.6,29.80,East,90,4.7,-999.0,92,-99.99,,,0.72,Acu-Link.com,2013-06-09 23:28:00,
2013-06-09 18:43:00,65.7,63.6,29.79,NE,45,7.3,-999.0,93,-99.99,,,0.72,Acu-Link.com,2013-06-09 23:43:00,
2013-06-09 18:58:00,66.2,63.8,29.79,ENE,67,8.9,-999.0,92,-99.99,,,0.72,Acu-Link.com,2013-06-09 23:58:00,
2013-06-09 19:14:00,66.0,63.6,29.79,East,90,5.8,-999.0,92,-99.99,,,0.72,Acu-Link.com,2013-06-10 00:14:00,
2013-06-09 19:29:00,65.7,63.6,29.80,NNE,22,6.3,-999.0,93,-99.99,,,0.72,Acu-Link.com,2013-06-10 00:29:00,
2013-06-09 19:44:00,66.4,64.0,29.80,NNE,22,7.3,-999.0,92,-99.99,,,0.72,Acu-Link.com,2013-06-10 00:44:00,
2013-06-09 19:59:00,65.3,63.5,29.80,ENE,67,6.8,-999.0,94,-99.99,,,0.72,Acu-Link.com,2013-06-10 00:59:00,
2013-06-09 20:14:00,64.4,62.9,29.81,NNE,22,6.8,-999.0,95,-99.99,,,0.72,Acu-Link.com,2013-06-10 01:14:00,
2013-06-09 20:30:00,63.5,62.6,29.81,NNW,337,6.8,-999.0,97,-99.99,,,0.72,Acu-Link.com,2013-06-10 01:30:00,
2013-06-09 20:45:00,63.0,62.4,29.81,NNE,22,5.8,-999.0,98,-99.99,,,0.72,Acu-Link.com,2013-06-10 01:45:00,
2013-06-09 21:00:00,62.4,61.8,29.81,NE,45,4.2,-999.0,98,-99.99,,,0.72,Acu-Link.com,2013-06-10 02:00:00,
2013-06-09 21:15:00,62.1,61.5,29.82,NNE,22,6.3,-999.0,98,-99.99,,,0.72,Acu-Link.com,2013-06-10 02:15:00,
2013-06-09 21:31:00,61.7,61.1,29.83,NE,45,4.2,-999.0,98,-99.99,,,0.72,Acu-Link.com,2013-06-10 02:31:00,
2013-06-09 21:48:00,61.5,60.9,29.83,ENE,67,4.7,-999.0,98,-99.99,,,0.72,Acu-Link.com,2013-06-10 02:48:00,
2013-06-09 22:03:00,61.3,60.7,29.83,NE,45,4.7,-999.0,98,-99.99,,,0.72,Acu-Link.com,2013-06-10 03:03:00,
2013-06-09 22:18:00,61.0,60.4,29.83,NNE,22,4.2,-999.0,98,-99.99,,,0.72,Acu-Link.com,2013-06-10 03:18:00,
2013-06-09 22:34:00,60.8,60.2,29.84,NNE,22,3.2,-999.0,98,-99.99,,,0.72,Acu-Link.com,2013-06-10 03:34:00,
2013-06-09 22:50:00,60.4,59.8,29.84,North,0,5.3,-999.0,98,-99.99,,,0.72,Acu-Link.com,2013-06-10 03:50:00,
2013-06-09 23:05:00,60.4,59.8,29.84,NNW,337,4.7,-999.0,98,-99.99,,,0.72,Acu-Link.com,2013-06-10 04:05:00,
2013-06-09 23:20:00,60.3,59.7,29.84,NW,315,4.7,-999.0,98,-99.99,,,0.72,Acu-Link.com,2013-06-10 04:20:00,
2013-06-09 23:39:00,60.3,59.7,29.85,NNE,22,5.3,-999.0,98,-99.99,,,0.72,Acu-Link.com,2013-06-10 04:39:00,
2013-06-09 23:54:00,60.1,59.5,29.84,NNE,22,5.3,-999.0,98,-99.99,,,0.72,Acu-Link.com,2013-06-10 04:54:00,